Wind_Speed
15 15 15 14 15 17 19 19 19 19 20 18 17 16 15 17 17 17 16 13 12 12 12 13 12 11 10 10 10 10 10 11 10 10 9 7 7 6 4 3 2 3 2
13 15 15 14 15 16 17 18 18 17 16 15 14 14 14 14 15 14 14 13 13 11 11 10 10 10 9 8 8 10 10 10 10 9 8 7 5 6 4 4 2 1 0
11 14 15 15 14 15 16 16 15 14 14 13 11 11 12 12 12 13 12 12 11 10 9 9 7 7 8 7 8 8 8 9 8 7 7 5 5 5 5 4 3 2 1
10 13 14 14 13 14 15 15 14 14 14 13 10 9 9 9 10 11 11 10 10 8 8 7 6 5 6 6 6 6 6 7 7 6 5 6 6 6 6 5 3 2 2
9 11 12 13 14 13 13 13 13 15 13 12 11 10 9 8 9 9 9 8 8 5 4 4 4 4 4 5 5 5 5 5 5 5 5 5 5 5 6 5 4 2 1
8 9 12 13 13 12 12 13 14 14 13 12 11 10 10 9 8 9 9 8 7 6 5 5 4 3 3 3 3 4 5 4 3 3 3 4 3 4 4 5 6 3 2
7 7 10 11 12 11 11 12 12 12 12 11 11 10 11 10 9 8 9 8 7 6 6 6 6 5 3 1 1 2 3 2 0 1 1 3 3 3 2 4 6 5 5
6 6 8 10 10 11 10 10 10 9 9 9 9 8 8 7 7 8 8 8 7 7 6 5 5 5 4 3 1 0 0 1 1 2 2 2 1 2 2 1 3 5 5
5 5 7 9 10 10 9 8 7 7 6 6 6 6 6 5 6 6 7 7 6 5 4 4 4 4 3 3 2 1 1 1 2 2 1 1 0 1 1 2 2 2 3
6 6 7 8 9 9 7 6 6 6 5 5 5 5 4 4 5 6 5 3 5 3 3 3 3 2 3 3 2 1 1 2 2 4 4 3 2 4 3 3 3 1 2
7 8 8 8 8 8 6 5 5 6 6 5 4 3 4 3 6 5 5 3 3 3 2 1 2 2 2 3 3 3 3 3 4 2 5 6 5 5 7 7 6 3 0
6 7 8 9 7 6 6 5 5 5 3 4 4 4 6 2 7 6 4 4 3 3 2 1 3 5 5 5 6 6 8 5 5 4 4 4 6 6 6 10 9 6 3
6 6 7 7 7 6 5 6 5 4 3 3 3 4 4 3 7 6 5 4 4 1 1 3 4 5 7 6 6 8 9 13 5 5 4 5 5 5 5 7 9 8 5
7 6 6 7 5 5 6 5 6 5 3 2 1 2 4 4 2 2 5 5 4 2 1 6 5 6 5 6 9 9 11 15 13 6 5 5 5 7 7 7 9 6 7
7 6 7 7 7 7 6 5 5 6 5 4 5 3 2 2 3 4 4 8 7 7 6 9 8 11 10 8 9 8 10 12 11 9 9 6 6 8 8 7 8 8 7
5 7 8 8 8 8 7 5 4 5 6 6 5 3 3 3 5 6 4 5 8 9 13 19 14 15 10 10 9 10 12 13 9 10 8 9 8 9 11 10 7 6 8
5 7 11 12 11 10 8 6 5 5 5 5 4 4 4 5 7 7 5 9 11 11 12 12 12 7 11 12 12 11 16 15 16 13 12 9 12 13 11 12 9 4 6
2 7 11 11 10 9 9 8 6 7 6 5 6 6 7 8 9 9 8 9 11 12 10 12 11 10 8 9 7 12 16 17 16 13 9 9 12 12 10 12 12 9 8
8 1 4 8 8 8 10 9 7 6 6 8 9 9 8 7 9 10 11 12 14 15 15 13 11 7 10 9 11 13 15 15 13 7 7 8 10 10 11 11 12 11 10
11 7 3 4 6 8 8 7 6 4 5 7 7 5 5 6 7 8 9 10 12 13 14 11 11 9 8 10 12 12 12 13 12 9 8 8 8 12 13 12 12 11 12
12 11 8 2 4 7 11 7 4 6 4 8 8 3 1 1 3 3 4 6 9 11 12 11 10 8 8 9 9 10 12 13 9 9 11 12 10 9 10 14 13 13 12
13 11 9 7 6 6 8 11 10 5 5 6 6 5 5 3 3 3 3 4 5 6 6 4 4 5 6 8 8 9 12 13 8 4 11 11 10 13 13 12 15 13 14
8 7 7 8 7 6 6 6 6 6 5 3 4 5 4 5 2 2 3 4 5 4 4 3 2 1 3 3 5 7 11 13 16 12 13 13 10 11 12 13 13 17 15
6 4 4 3 3 2 0 1 1 1 2 3 4 6 5 6 6 5 3 3 3 4 4 3 2 2 3 2 3 5 6 7 9 14 14 12 12 11 8 11 13 13 16
10 8 5 4 3 3 4 5 6 7 7 7 7 9 10 8 7 7 7 6 4 4 5 3 2 1 1 3 4 4 4 6 8 11 13 13 12 13 18 18 12 16 13
12 9 10 10 10 7 7 10 10 9 9 10 10 13 13 13 10 8 7 7 6 5 5 4 3 4 5 5 7 8 8 9 11 13 14 14 14 14 14 13 14 6 11
Wind_Direction
88 91 93 95 101 105 110 117 114 102 98 102 105 106 108 108 108 104 105 110 105 97 89 80 76 76 75 72 76 66 73 74 72 73 78 80 67 52 65 95 112 147 157
92 97 98 97 99 108 115 120 119 111 104 103 106 111 102 102 102 110 118 121 108 103 96 88 81 79 81 73 74 81 65 69 71 75 81 90 64 63 67 68 77 45 191
94 99 104 103 106 112 115 110 113 115 118 113 116 107 104 104 106 113 126 121 114 108 100 86 78 76 79 78 74 76 72 74 76 80 86 91 78 73 71 79 91 107 122
108 103 108 110 109 112 117 121 120 116 112 117 117 116 121 120 119 117 114 115 114 111 105 92 79 91 89 83 80 82 65 73 68 73 82 76 62 58 72 81 66 76 137
110 112 108 116 114 116 117 119 118 109 111 121 128 131 123 136 138 126 113 104 99 106 114 108 78 78 88 78 73 80 77 78 73 71 77 74 67 60 68 71 51 38 52
110 115 116 117 111 114 119 117 115 114 118 118 123 121 125 125 125 124 119 110 104 107 98 91 88 98 94 84 66 74 81 91 98 98 84 81 78 64 64 78 66 78 45
109 121 125 127 125 118 124 124 123 123 120 116 114 117 115 116 118 120 113 114 108 98 89 75 63 54 58 76 95 64 66 80 127 246 60 57 40 48 52 80 73 66 52
120 129 140 143 140 136 134 135 132 133 126 118 114 111 114 108 114 116 115 113 112 113 104 84 66 54 52 39 45 151 191 15 6 116 116 113 76 11 31 51 62 64 50
151 137 149 156 158 156 148 145 142 136 132 126 132 121 114 113 120 124 120 112 106 106 104 96 73 45 29 48 57 58 248 268 246 225 268 201 256 279 312 322 29 39 52
180 171 160 163 171 172 166 160 145 130 125 121 114 122 114 134 145 147 142 134 119 88 77 42 32 26 359 355 5 17 335 262 268 263 250 261 302 284 280 276 269 320 32
200 187 189 176 177 182 179 171 143 129 109 113 108 107 108 167 169 168 187 166 153 163 209 39 344 337 332 311 319 316 273 251 257 259 249 264 258 326 262 263 252 243 262
221 202 205 199 191 195 194 191 168 138 116 97 74 70 74 137 190 180 187 166 159 142 79 15 331 336 328 310 308 305 281 274 242 251 266 277 279 284 312 251 256 248 233
236 211 217 221 216 218 225 211 210 170 142 107 91 67 49 31 140 206 198 186 164 140 83 355 314 314 316 316 304 299 298 291 317 240 261 281 287 286 291 264 242 253 256
234 235 225 221 222 231 230 235 228 232 208 187 182 133 79 100 130 225 202 217 189 228 130 271 314 323 339 337 326 314 312 293 309 340 291 286 290 283 308 289 243 235 261
219 221 222 217 210 218 224 230 235 219 215 203 218 222 165 170 187 216 266 233 236 251 256 262 261 278 287 305 332 341 338 296 328 319 310 299 293 297 303 322 259 238 252
208 214 212 211 207 213 219 216 225 216 215 222 228 237 252 250 260 261 277 274 268 263 276 318 259 262 280 297 313 317 313 308 310 300 297 294 293 286 301 311 334 256 221
216 211 216 208 204 205 207 208 220 219 223 232 239 248 261 260 259 268 278 290 288 294 302 313 334 306 288 290 307 313 332 335 316 291 291 291 279 278 302 297 299 277 234
205 207 222 217 207 203 201 205 222 232 226 233 240 245 262 277 283 284 281 296 299 292 301 312 311 319 323 306 315 324 325 324 324 310 268 282 266 279 283 294 284 278 265
37 70 223 205 214 209 197 199 210 226 246 248 257 262 261 268 285 289 290 297 294 290 292 299 296 314 309 318 329 333 330 332 330 304 301 289 285 279 272 281 285 280 281
35 40 104 201 224 232 228 222 214 216 243 258 251 263 260 264 276 289 296 298 300 295 299 286 287 301 304 317 326 333 334 334 332 312 300 299 285 283 290 284 275 280 283
50 52 43 353 253 244 223 201 167 143 82 62 68 69 80 246 281 346 338 297 291 299 298 287 264 289 299 317 325 332 341 339 332 306 311 282 274 274 290 271 272 276 273
48 57 66 79 84 109 130 131 132 120 62 34 28 28 359 343 24 20 17 6 4 346 334 288 253 269 301 314 324 332 336 340 353 310 306 298 283 278 278 279 263 270 270
30 42 58 74 83 97 116 124 116 100 61 45 328 299 297 301 330 354 351 8 22 5 25 40 45 341 319 316 352 349 359 355 347 351 324 306 308 287 288 279 278 259 264
313 336 18 59 95 92 323 45 96 145 212 265 299 310 313 293 288 285 297 335 352 5 19 33 53 39 12 18 9 2 352 356 1 2 4 341 352 354 295 287 283 275 264
316 280 276 269 265 257 257 252 258 254 264 274 287 286 278 278 292 302 292 286 290 305 307 319 5 37 357 327 312 312 322 335 340 350 346 348 349 341 345 4 324 283 268
310 292 264 270 274 281 289 277 267 266 270 275 272 275 280 275 270 270 274 268 260 252 260 257 251 266 279 285 292 300 304 306 316 326 332 334 331 330 334 342 352 335 311
Height
5889 5888 5888 5889 5889 5890 5890 5891 5892 5893 5892 5893 5894 5896 5896 5896 5896 5896 5897 5899 5899 5899 5898 5897 5896 5896 5896 5896 5896 5896 5895 5894 5894 5894 5893 5892 5892 5892 5892 5892 5892 5893 5893
5891 5890 5890 5891 5891 5892 5893 5893 5893 5894 5895 5896 5897 5898 5897 5897 5897 5898 5900 5900 5900 5901 5900 5900 5899 5898 5898 5898 5898 5898 5897 5896 5896 5895 5894 5895 5895 5894 5893 5893 5893 5893 5893
5894 5893 5892 5892 5894 5895 5895 5895 5895 5895 5896 5897 5899 5899 5899 5899 5900 5901 5902 5901 5902 5903 5902 5902 5902 5901 5900 5900 5900 5899 5898 5898 5898 5897 5897 5896 5896 5895 5894 5893 5894 5894 5894
5897 5896 5895 5896 5896 5897 5898 5898 5898 5898 5898 5899 5900 5900 5901 5901 5902 5903 5904 5903 5904 5904 5903 5903 5903 5903 5902 5901 5901 5900 5900 5899 5899 5898 5898 5897 5896 5896 5895 5894 5895 5895 5895
5899 5898 5899 5898 5899 5900 5900 5900 5900 5900 5900 5901 5901 5902 5902 5903 5904 5904 5904 5904 5903 5904 5905 5905 5904 5904 5904 5903 5902 5902 5901 5901 5900 5899 5898 5897 5897 5896 5896 5895 5895 5895 5895
5900 5900 5901 5901 5901 5902 5903 5903 5902 5902 5903 5902 5903 5904 5904 5905 5905 5905 5905 5905 5905 5906 5906 5905 5905 5905 5904 5904 5903 5902 5902 5901 5900 5900 5899 5898 5897 5897 5897 5896 5896 5895 5896
5902 5902 5902 5903 5903 5905 5905 5905 5905 5905 5905 5905 5905 5906 5906 5906 5906 5907 5906 5906 5906 5907 5906 5906 5906 5906 5905 5904 5904 5903 5903 5902 5901 5900 5900 5899 5898 5898 5898 5897 5896 5895 5896
5904 5904 5904 5904 5905 5905 5906 5907 5907 5907 5908 5907 5907 5907 5907 5908 5908 5908 5907 5907 5907 5907 5907 5907 5907 5906 5906 5905 5905 5904 5903 5903 5902 5901 5900 5900 5899 5898 5898 5898 5896 5895 5895
5904 5905 5906 5906 5906 5907 5907 5908 5908 5908 5908 5908 5908 5908 5908 5909 5909 5909 5908 5907 5908 5908 5908 5907 5907 5907 5907 5906 5905 5904 5903 5903 5902 5901 5900 5900 5899 5898 5897 5897 5896 5895 5895
5905 5905 5906 5907 5907 5908 5908 5908 5908 5909 5909 5909 5909 5908 5908 5908 5909 5909 5909 5909 5908 5909 5909 5908 5907 5907 5907 5906 5905 5904 5904 5903 5903 5902 5900 5900 5899 5898 5897 5896 5896 5895 5895
5904 5905 5906 5907 5908 5908 5908 5908 5909 5910 5909 5910 5909 5908 5909 5908 5908 5908 5909 5909 5910 5909 5909 5908 5907 5907 5906 5905 5905 5904 5902 5902 5901 5900 5900 5899 5899 5898 5896 5895 5895 5895 5894
5904 5905 5906 5907 5908 5909 5909 5909 5910 5910 5910 5910 5910 5909 5908 5907 5907 5908 5909 5909 5909 5910 5909 5907 5907 5906 5906 5905 5904 5903 5901 5899 5899 5899 5899 5899 5898 5897 5896 5895 5895 5894 5894
5904 5904 5906 5907 5908 5908 5909 5910 5910 5910 5909 5910 5910 5909 5908 5907 5907 5907 5908 5909 5909 5909 5909 5908 5907 5905 5905 5904 5903 5902 5900 5898 5897 5897 5897 5897 5897 5896 5894 5894 5894 5894 5895
5902 5904 5905 5906 5907 5908 5908 5909 5910 5910 5909 5910 5910 5909 5908 5907 5907 5907 5908 5908 5908 5908 5907 5907 5907 5906 5905 5904 5902 5900 5899 5898 5896 5896 5896 5896 5896 5895 5894 5893 5892 5893 5893
5900 5901 5903 5904 5906 5907 5907 5909 5909 5909 5909 5909 5908 5908 5908 5908 5907 5907 5907 5907 5907 5906 5906 5906 5904 5904 5904 5904 5902 5900 5899 5897 5895 5896 5895 5894 5894 5893 5892 5892 5891 5892 5892
5898 5900 5902 5903 5904 5905 5906 5907 5909 5909 5909 5909 5908 5908 5908 5908 5908 5907 5907 5907 5906 5906 5905 5903 5902 5902 5902 5902 5901 5900 5898 5896 5895 5893 5893 5893 5891 5891 5891 5890 5890 5890 5890
5898 5898 5900 5901 5901 5903 5905 5906 5907 5908 5908 5908 5908 5908 5907 5907 5907 5907 5907 5906 5905 5904 5903 5901 5899 5899 5900 5900 5899 5897 5896 5894 5892 5891 5891 5890 5890 5889 5889 5888 5889 5889 5888
5897 5897 5897 5899 5900 5902 5903 5905 5906 5908 5908 5908 5908 5908 5907 5906 5906 5906 5904 5903 5902 5901 5901 5900 5899 5898 5898 5897 5897 5896 5894 5892 5891 5889 5888 5888 5887 5887 5887 5887 5886 5887 5887
5897 5896 5897 5899 5900 5901 5902 5903 5904 5906 5907 5908 5907 5906 5906 5905 5904 5904 5902 5901 5900 5899 5899 5898 5897 5897 5896 5896 5895 5893 5891 5889 5887 5886 5886 5886 5885 5885 5885 5886 5885 5885 5885
5899 5898 5899 5900 5901 5902 5903 5904 5903 5905 5905 5905 5905 5904 5903 5902 5901 5900 5899 5899 5897 5896 5895 5896 5895 5894 5894 5893 5892 5892 5889 5887 5885 5883 5883 5882 5882 5883 5883 5883 5884 5883 5883
5902 5902 5902 5901 5901 5901 5902 5903 5904 5904 5905 5904 5902 5903 5901 5900 5899 5898 5896 5896 5894 5893 5892 5892 5892 5893 5892 5891 5891 5889 5888 5886 5883 5880 5879 5879 5878 5879 5879 5879 5880 5880 5880
5906 5905 5905 5903 5903 5903 5903 5903 5903 5903 5903 5902 5902 5901 5900 5900 5898 5897 5896 5894 5892 5891 5890 5889 5889 5890 5890 5890 5889 5887 5885 5883 5880 5879 5877 5875 5876 5876 5875 5875 5876 5877 5877
5909 5908 5907 5906 5905 5905 5905 5903 5902 5902 5902 5901 5901 5900 5899 5899 5897 5896 5895 5893 5891 5890 5889 5888 5888 5888 5888 5888 5887 5885 5883 5881 5878 5878 5876 5872 5872 5872 5872 5872 5873 5873 5874
5910 5910 5909 5908 5907 5905 5905 5904 5902 5901 5900 5901 5901 5900 5899 5898 5896 5895 5893 5892 5890 5889 5888 5887 5887 5886 5887 5886 5885 5884 5883 5881 5880 5878 5875 5872 5869 5868 5868 5868 5868 5869 5869
5911 5910 5909 5908 5906 5904 5904 5903 5902 5901 5900 5900 5900 5899 5898 5897 5894 5893 5892 5891 5889 5888 5888 5886 5885 5885 5884 5885 5884 5883 5882 5880 5878 5877 5875 5873 5870 5868 5864 5860 5862 5863 5865
5908 5907 5906 5906 5906 5905 5904 5903 5902 5901 5900 5899 5898 5897 5895 5893 5892 5890 5889 5888 5887 5886 5886 5885 5884 5883 5882 5882 5882 5881 5880 5879 5876 5874 5873 5872 5870 5867 5864 5862 5860 5860 5861